loading
|

STARLINK-32000, 60289

Orbit data source: Space-Track

STARLINK-32000, 60289 is a payload satellite owned by SpaceX/Seattle (US) in LEO that was launched on Sun, 28 Jul 2024 UTC via an FALCON 9 launch vehicle from the Air Force Eastern Test Range (AFETR). Payloads include a variety of satellites, spacecraft, and rockets equipped with specific instruments for various scientific and technological missions. These include communications satellites like Starlink; space stations such as the ISS; scientific satellites like the Hubble; Earth observation satellites from companies like Planet Labs, Umbra, and HawkEye 360; GPS; miniature CubeSats for education and research; and military/defense satellites.

Loading next visibility...
Loading greatness...
STARLINK-32000 details
Identifier
60289, 2024-132M
Orbit
LEO
Last TLE update6 hours ago
Origin
Flag of USSpaceX/Seattle (US)
ManufacturerSpaceX/Seattle
Mission statusOperational
MissionUnknown
Bus & MotorSTARLINK V2M, Unknown motor
Mass750 kg wet, ~700 kg dry
Launch date (UTC)
2024-07-28 (2 months ago)
Launch vehicle
FALCON 9
Launch site
Air Force Eastern Test Range (AFETR)
Object type
Payload
Rocket body
Debris
Radar Cross SectionLarge (>1 m²)

Expand to show TLE details & history

TLE from 6 hours ago
0 STARLINK-32000
1 60289U 24132M   24261.63550181 -.00005239  00000-0 -12098-3 0  9995
2 60289  53.1615  32.2297 0001642 108.9259 251.1924 15.39642904  9174
Epoch: 2024-09-17T15:15Z
Definitive object data (Epoch: 2024-09-17T15:15:07.356Z)
Latitude-0.00001°
Longitude166.40171°
Altitude448.429 km
Speed7.644 km/s
True Right ascension02h 08m 55s
True Declination0° 00' 00"
Sunlit
Object was in full shadow at TLE epoch
Predictive object data (real-time)
Latitude-53.02075°
Longitude83.60337°
Altitude466.684 km
Speed7.632 km/s
Apparent Right ascension23h 32m 57s
Apparent Declination-53° 49' 41"
Sunlit
Object is in full shadow
Predictive observer data (real-time)
Local Sidereal Time13:55:36
Azimuth132.149° SE
Elevation-62.347°
Doppler factor1
Orbital elements
Apogee448.542 km
Perigee446.301 km
Semi-major axis6,825.559 km
Eccentricity0.0001642
Inclination53.1615°
RAAN32.2297°
Arg. of periapsis108.9259°
True anomaly251.17459°
Mean anomaly251.1924°
Eccentric anomaly251.18349°
Mean motion3.84889 °/min
BSTAR-0.00012098
Period93.53 mins
No data available

STARLINK-32000 Visibility forecast

Observer location: 39.9160978°, -105.1181434

STARLINK-32000 is not visible in the next 10 days
Span
Click to sort rows by Start time (UTC) header in descending order
Start Az.
Max El. time (UTC)
Max El. Az.
Max El.
End time (UTC)
End Az.